Location: La Comballaz
(46.3780°N, 7.0817°E)
Time: 01:17:44
(UTC+00:00)

X-37B - Pass Details

Date: 08 December 2021
Orbit: 334 x 337 km, 45.0° (Epoch: 11 January)

Event Time Altitude Azimuth Distance (km) Brightness Sun altitude
Rises 17:33:17 0° 235° (SW) 2,097 5.6 -17.9°
Reaches altitude 10° 17:35:23 10° 224° (SW) 1,263 4.0 -18.2°
Enters shadow 17:37:40 30° 172° (S) 628 1.6 -18.6°
